Weather History for Farmingdale, NY

Change the Weather History Date:

Wednesday, October 24, 2012

  Actual Average Record
Temperature  
Mean Temperature 56 °F -  
Max Temperature 59 °F 58 °F 84 °F (1998)
Min Temperature 54 °F 43 °F 34 °F (2008)
Degree Days  
Heating Degree Days 8    
Growing Degree Days 6 (Base 50)    
Moisture  
Dew Point 53 °F    
Average Humidity 90    
Maximum Humidity 96    
Minimum Humidity 81    
Precipitation  
Precipitation 0.05 in - - ()
Sea Level Pressure  
Sea Level Pressure 30.14 in    
Wind  
Wind Speed 5 mph (NE)    
Max Wind Speed 8 mph    
Max Gust Speed -    
Visibility 8 miles    
Events Rain    
Averages and records for this station are not official NWS values.
T = Trace of Precipitation, MM = Missing Value Source: NWS Daily Summary

Daily Weather History Graph

Daily Weather History Graph

Search for Another Location

Airport:

Trip Planner

Search our weather history database for the weather conditions in past years. The results will help you decide how hot, cold, wet, or windy it might be!

Date:

Astronomy

Oct. 24, 2012 Rise Set
Actual Time 7:15 AM EDT 5:59 PM EDT
Civil Twilight 6:47 AM EDT 6:27 PM EDT
Nautical Twilight 6:15 AM EDT 6:59 PM EDT
Astronomical Twilight 5:43 AM EDT 7:31 PM EDT
Moon 3:15 PM EDT (10/24) 2:06 AM EDT (10/24)
Length of Visible Light 11h 40m
Length of Day
10h 44m
Waxing Gibbous, 76% of the Moon is Illuminated
Oct 24
Waxing Gibbous
Oct 29
Full
Nov 6
Last Quarter
Nov 13
New
Nov 20
First Quarter

Hourly Weather History & Observations

Time (EDT) Temp. Dew Point Humidity Pressure Visibility Wind Dir Wind Speed Gust Speed Precip Events Conditions
12:53 AM 55.9 °F 54.0 °F 93% 30.11 in 9.0 mi NE 5.8 mph - N/A   Overcast
1:53 AM 55.9 °F 54.0 °F 93% 30.10 in 9.0 mi NE 5.8 mph - 0.00 in   Overcast
2:53 AM 55.9 °F 54.0 °F 93% 30.11 in 8.0 mi ENE 3.5 mph - 0.01 in   Overcast
3:05 AM 55.4 °F 53.6 °F 94% 30.10 in 7.0 mi ENE 3.5 mph - N/A   Overcast
3:53 AM 55.0 °F 54.0 °F 96% 30.10 in 6.0 mi NE 6.9 mph - N/A   Overcast
4:30 AM 55.4 °F 53.6 °F 94% 30.11 in 6.0 mi NE 3.5 mph - N/A   Overcast
4:48 AM 55.4 °F 53.6 °F 94% 30.12 in 6.0 mi NE 3.5 mph - N/A   Overcast
4:53 AM 55.0 °F 54.0 °F 96% 30.11 in 6.0 mi NE 4.6 mph - N/A   Overcast
5:15 AM 55.4 °F 53.6 °F 94% 30.12 in 6.0 mi NE 4.6 mph - N/A   Overcast
5:40 AM 55.4 °F 53.6 °F 94% 30.12 in 6.0 mi Calm Calm - N/A   Overcast
5:53 AM 55.0 °F 54.0 °F 96% 30.13 in 6.0 mi Calm Calm - N/A   Overcast
6:11 AM 55.4 °F 53.6 °F 94% 30.13 in 6.0 mi Calm Calm - N/A   Overcast
6:53 AM 55.0 °F 54.0 °F 96% 30.13 in 6.0 mi NE 5.8 mph - N/A   Overcast
7:22 AM 55.4 °F 53.6 °F 94% 30.14 in 8.0 mi NE 5.8 mph - N/A   Overcast
7:36 AM 55.4 °F 53.6 °F 94% 30.13 in 6.0 mi ENE 6.9 mph - N/A   Overcast
7:53 AM 55.0 °F 54.0 °F 96% 30.14 in 5.0 mi NE 4.6 mph - N/A   Mostly Cloudy
8:06 AM 55.4 °F 53.6 °F 94% 30.14 in 6.0 mi ENE 5.8 mph - N/A   Mostly Cloudy
8:29 AM 55.4 °F 53.6 °F 94% 30.15 in 6.0 mi ENE 4.6 mph - N/A   Mostly Cloudy
8:36 AM 55.4 °F 53.6 °F 94% 30.15 in 6.0 mi NE 3.5 mph - N/A   Overcast
8:53 AM 55.9 °F 54.0 °F 93% 30.15 in 5.0 mi NE 4.6 mph - 0.00 in Rain Light Rain
9:53 AM 55.9 °F 54.0 °F 93% 30.15 in 5.0 mi ENE 4.6 mph - 0.00 in   Overcast
10:10 AM 57.2 °F 55.4 °F 94% 30.15 in 7.0 mi NE 5.8 mph - N/A   Overcast
10:53 AM 57.0 °F 55.0 °F 93% 30.14 in 6.0 mi Calm Calm - 0.03 in Rain Light Rain
11:19 AM 57.2 °F 55.4 °F 94% 30.14 in 8.0 mi NE 4.6 mph - 0.00 in Rain Light Rain
11:23 AM 57.2 °F 55.4 °F 94% 30.14 in 7.0 mi ENE 4.6 mph - 0.01 in Rain Light Rain
11:53 AM 57.9 °F 55.0 °F 90% 30.14 in 10.0 mi NE 5.8 mph - 0.01 in Rain Light Rain
12:31 PM 59.0 °F 55.4 °F 88% 30.12 in 10.0 mi NE 5.8 mph - 0.00 in   Overcast
12:53 PM 57.9 °F 55.0 °F 90% 30.12 in 10.0 mi NNE 8.1 mph - 0.00 in   Overcast
1:29 PM 57.2 °F 53.6 °F 88% 30.12 in 10.0 mi NNE 8.1 mph - N/A   Overcast
1:53 PM 57.9 °F 54.0 °F 87% 30.12 in 10.0 mi NNE 8.1 mph - N/A   Overcast
2:53 PM 57.9 °F 53.1 °F 84% 30.11 in 10.0 mi ENE 4.6 mph - N/A   Overcast
3:45 PM 57.2 °F 51.8 °F 82% 30.12 in 10.0 mi NE 5.8 mph - 0.00 in   Overcast
3:53 PM 57.9 °F 52.0 °F 81% 30.12 in 10.0 mi NE 6.9 mph - 0.00 in   Overcast
4:53 PM 57.9 °F 52.0 °F 81% 30.13 in 10.0 mi ENE 4.6 mph - N/A   Overcast
5:53 PM 57.0 °F 51.1 °F 81% 30.15 in 10.0 mi NE 4.6 mph - N/A   Overcast
6:53 PM 55.9 °F 51.1 °F 84% 30.17 in 10.0 mi NNE 5.8 mph - N/A   Overcast
7:53 PM 55.9 °F 51.1 °F 84% 30.18 in 10.0 mi NE 3.5 mph - N/A   Overcast
8:53 PM 55.9 °F 51.1 °F 84% 30.19 in 10.0 mi East 5.8 mph - N/A   Overcast
9:33 PM 55.4 °F 50.0 °F 82% 30.19 in 10.0 mi ESE 5.8 mph - N/A   Overcast
9:53 PM 55.0 °F 50.0 °F 83% 30.20 in 10.0 mi NE 3.5 mph - N/A   Overcast
10:53 PM 54.0 °F 50.0 °F 86% 30.20 in 10.0 mi ENE 4.6 mph - N/A   Overcast
11:53 PM 54.0 °F 50.0 °F 86% 30.21 in 10.0 mi NNE 5.8 mph - N/A   Overcast